| time (UTC) | temp F | wind direction | speed MPH | gust MPH | rain 1hr in | rain 24hr in | rain mn in | humidity % | barometer mb |
| 20260505121557 | 66 | 0 | 0.0 | 0.0 | 0.00 | 0.00 | 0.00 | 87 | 1001.6 |
| 20260505120111 | 66 | 0 | 0.0 | 0.0 | 0.00 | 0.00 | 0.00 | 86 | 1001.6 |
| 20260505114554 | 66 | 0 | 0.0 | 0.0 | 0.00 | 0.00 | 0.00 | 85 | 1001.2 |
| 20260505113052 | 67 | 0 | 0.0 | 0.0 | 0.00 | 0.00 | 0.00 | 84 | 1000.7 |
| 20260505111552 | 68 | 0 | 0.0 | 0.0 | 0.00 | 0.00 | 0.00 | 82 | 1000.6 |
| 20260505110112 | 69 | 0 | 0.0 | 0.0 | 0.00 | 0.00 | 0.00 | 80 | 1000.1 |
| 20260505101602 | 71 | 144 | 2.0 | 8.0 | 0.00 | 0.00 | 0.00 | 77 | 999.1 |
| 20260505100057 | 71 | 126 | 0.0 | 6.0 | 0.00 | 0.00 | 0.00 | 77 | 999.0 |
| 20260505094553 | 71 | 132 | 2.0 | 8.0 | 0.00 | 0.00 | 0.00 | 77 | 999.1 |
| 20260505093053 | 72 | 136 | 2.0 | 8.0 | 0.00 | 0.00 | 0.00 | 77 | 998.9 |
| 20260505091557 | 71 | 144 | 1.0 | 7.0 | 0.00 | 0.00 | 0.00 | 77 | 999.2 |
| 20260505090057 | 71 | 132 | 1.0 | 7.0 | 0.00 | 0.00 | 0.00 | 77 | 999.1 |
| 20260505084602 | 71 | 124 | 1.0 | 6.0 | 0.00 | 0.00 | 0.00 | 77 | 999.3 |
| 20260505083105 | 71 | 158 | 2.0 | 9.0 | 0.00 | 0.00 | 0.00 | 78 | 999.3 |
| 20260505081551 | 71 | 142 | 1.0 | 7.0 | 0.00 | 0.00 | 0.00 | 77 | 999.6 |
| 20260505080054 | 71 | 175 | 2.0 | 9.0 | 0.00 | 0.00 | 0.00 | 77 | 999.7 |
| 20260505074554 | 71 | 132 | 1.0 | 6.0 | 0.00 | 0.00 | 0.00 | 77 | 999.8 |
| 20260505073059 | 71 | 142 | 3.0 | 9.0 | 0.00 | 0.00 | 0.00 | 77 | 1000.0 |
| 20260505071555 | 71 | 126 | 2.0 | 7.0 | 0.00 | 0.00 | 0.00 | 77 | 1000.3 |
| 20260505070053 | 71 | 131 | 2.0 | 5.0 | 0.00 | 0.00 | 0.00 | 77 | 1000.6 |
| 20260505064625 | 72 | 132 | 1.0 | 10.0 | 0.00 | 0.00 | 0.00 | 76 | 1000.7 |
| 20260505063053 | 71 | 97 | 2.0 | 7.0 | 0.00 | 0.00 | 0.00 | 76 | 1000.9 |
| 20260505061552 | 71 | 132 | 1.0 | 6.0 | 0.00 | 0.00 | 0.00 | 76 | 1001.1 |
| 20260505060058 | 71 | 159 | 1.0 | 6.0 | 0.00 | 0.00 | 0.00 | 76 | 1001.2 |
| 20260505054558 | 71 | 78 | 2.0 | 6.0 | 0.00 | 0.00 | 0.00 | 76 | 1001.5 |
| 20260505053057 | 72 | 121 | 1.0 | 7.0 | 0.00 | 0.00 | 0.00 | 75 | 1001.6 |
| 20260505051555 | 72 | 39 | 1.0 | 6.0 | 0.00 | 0.00 | 0.00 | 75 | 1001.7 |
| 20260505041603 | 73 | 209 | 2.0 | 10.0 | 0.00 | 0.00 | 0.00 | 72 | 1002.3 |
| 20260505034606 | 74 | 121 | 2.0 | 7.0 | 0.00 | 0.00 | 0.00 | 72 | 1002.3 |
| 20260505033055 | 74 | 132 | 3.0 | 9.0 | 0.00 | 0.00 | 0.00 | 71 | 1002.3 |
| 20260505031552 | 75 | 105 | 1.0 | 9.0 | 0.00 | 0.00 | 0.00 | 70 | 1002.2 |
| 20260505030101 | 75 | 98 | 2.0 | 11.0 | 0.00 | 0.00 | 0.00 | 70 | 1002.0 |
| 20260505024608 | 75 | 132 | 2.0 | 8.0 | 0.00 | 0.00 | 0.00 | 69 | 1002.0 |
| 20260505023054 | 76 | 39 | 3.0 | 7.0 | 0.00 | 0.00 | 0.00 | 68 | 1001.8 |
| 20260505021550 | 76 | 202 | 2.0 | 7.0 | 0.00 | 0.00 | 0.00 | 68 | 1001.5 |
| 20260505020104 | 76 | 105 | 2.0 | 8.0 | 0.00 | 0.00 | 0.00 | 68 | 1001.7 |
| 20260505014551 | 76 | 132 | 2.0 | 6.0 | 0.00 | 0.00 | 0.00 | 67 | 1001.7 |
| 20260505013054 | 76 | 44 | 2.0 | 7.0 | 0.00 | 0.00 | 0.00 | 67 | 1001.6 |
| 20260505011556 | 77 | 126 | 2.0 | 5.0 | 0.00 | 0.00 | 0.00 | 66 | 1001.7 |
| 20260505010110 | 77 | 132 | 2.0 | 7.0 | 0.00 | 0.00 | 0.00 | 66 | 1001.8 |
| 20260505004631 | 77 | 130 | 1.0 | 6.0 | 0.00 | 0.00 | 0.00 | 65 | 1001.7 |
| 20260505003101 | 78 | 146 | 4.0 | 13.0 | 0.00 | 0.00 | 0.00 | 63 | 1001.8 |
| 20260505001555 | 79 | 155 | 3.0 | 11.0 | 0.00 | 0.00 | 0.00 | 62 | 1002.0 |
| 20260505000111 | 79 | 105 | 2.0 | 9.0 | 0.00 | 0.00 | 0.00 | 63 | 1001.9 |
| 20260504234555 | 79 | 136 | 2.0 | 6.0 | 0.00 | 0.00 | 0.00 | 63 | 1002.0 |
| 20260504233109 | 79 | 132 | 2.0 | 9.0 | 0.00 | 0.00 | 0.00 | 62 | 1002.3 |
| 20260504231622 | 79 | 105 | 4.0 | 10.0 | 0.00 | 0.00 | 0.00 | 61 | 1002.6 |
| 20260504230057 | 79 | 136 | 3.0 | 9.0 | 0.00 | 0.00 | 0.00 | 62 | 1003.0 |
| 20260504224554 | 79 | 126 | 2.0 | 8.0 | 0.00 | 0.00 | 0.00 | 62 | 1002.9 |
| 20260504223058 | 79 | 159 | 2.0 | 7.0 | 0.00 | 0.00 | 0.00 | 60 | 1003.2 |
| 20260504221643 | 79 | 136 | 2.0 | 10.0 | 0.00 | 0.00 | 0.00 | 60 | 1003.2 |
| 20260504220057 | 79 | 105 | 4.0 | 17.0 | 0.00 | 0.00 | 0.00 | 59 | 1003.3 |
| 20260504214551 | 79 | 136 | 4.0 | 11.0 | 0.00 | 0.00 | 0.00 | 58 | 1003.5 |
| 20260504213100 | 80 | 143 | 3.0 | 13.0 | 0.00 | 0.00 | 0.00 | 57 | 1003.6 |
| 20260504211558 | 80 | 136 | 3.0 | 10.0 | 0.00 | 0.00 | 0.00 | 56 | 1003.9 |
| 20260504210054 | 80 | 167 | 4.0 | 11.0 | 0.00 | 0.00 | 0.00 | 55 | 1003.9 |
| 20260504204559 | 81 | 121 | 4.0 | 12.0 | 0.00 | 0.00 | 0.00 | 55 | 1004.3 |
| 20260504203101 | 81 | 167 | 4.0 | 13.0 | 0.00 | 0.00 | 0.00 | 55 | 1004.3 |
| 20260504201611 | 81 | 109 | 4.0 | 11.0 | 0.00 | 0.00 | 0.00 | 53 | 1004.5 |
| 20260504200055 | 81 | 44 | 4.0 | 10.0 | 0.00 | 0.00 | 0.00 | 53 | 1004.9 |
| 20260504194604 | 81 | 110 | 4.0 | 16.0 | 0.00 | 0.00 | 0.00 | 55 | 1005.2 |
| 20260504193050 | 80 | 186 | 1.0 | 0.0 | 0.00 | 0.00 | 0.00 | 55 | 1005.4 |
| 20260504191613 | 80 | 132 | 3.0 | 11.0 | 0.00 | 0.00 | 0.00 | 53 | 1005.5 |
| 20260504190053 | 80 | 207 | 2.0 | 9.0 | 0.00 | 0.00 | 0.00 | 54 | 1005.8 |
| 20260504184605 | 79 | 132 | 5.0 | 13.0 | 0.00 | 0.00 | 0.00 | 54 | 1005.9 |
| 20260504183050 | 79 | 132 | 3.0 | 10.0 | 0.00 | 0.00 | 0.00 | 54 | 1006.0 |
| 20260504181552 | 79 | 195 | 5.0 | 14.0 | 0.00 | 0.00 | 0.00 | 52 | 1006.3 |
| 20260504180058 | 79 | 136 | 3.0 | 15.0 | 0.00 | 0.00 | 0.00 | 53 | 1006.6 |
| 20260504174552 | 78 | 194 | 6.0 | 13.0 | 0.00 | 0.00 | 0.00 | 52 | 1006.9 |
| 20260504173054 | 78 | 136 | 4.0 | 12.0 | 0.00 | 0.00 | 0.00 | 52 | 1007.0 |
| 20260504171553 | 77 | 132 | 5.0 | 12.0 | 0.00 | 0.00 | 0.00 | 53 | 1007.1 |
| 20260504140103 | 67 | 263 | 3.0 | 12.0 | 0.00 | 0.00 | 0.00 | 62 | 1008.5 |